This demonstration page uses our WeatherBlox Daily Observations layout. Learn more.

39.92423, -83.80882

Hourly Observations for July 20, 2018

Temp ( °F °C ) Dew Point ( °F °C ) Humidity (%) Winds ( mph kmh ) Pressure ( in mb ) Visibility ( mi km ) Precip ( " mm )
12:56 am 00:56 Clear 65 18.3 60 15.6 84 84 ESE 3 6 29.94 1014 10 16.0934 0 0
1:56 am 01:56 Clear 67 19.4 61 16.1 81 81 SE 7 11 29.93 1014 10 16.0934 0 0
2:56 am 02:56 Clear 66 18.9 61 16.1 84 84 SE 7 11 29.91 1013 10 16.0934 0 0
3:56 am 03:56 Clear 65 18.3 61 16.1 87 87 SE 5 7 29.91 1013 10 16.0934 0 0
4:56 am 04:56 Clear 64 17.8 62 16.7 93 93 SSE 7 11 29.89 1012 10 16.0934 0 0
5:56 am 05:56 Clear 64 17.8 62 16.7 93 93 SE 7 11 29.9 1012 10 16.0934 0 0
6:56 am 06:56 Sunny 67 19.4 64 17.8 91 91 SSE 6 9 29.91 1013 10 16.0934 0 0.0254
7:40 am 07:40 Partly Cloudy with Nearby Thunderstorms 68 20 64 18 88 88 W 9 15 29.91 1013 8 12.87472 0 0.0254
7:56 am 07:56 Partly Cloudy with Nearby Thunderstorms 67 19.4 65 18.3 93 93 WSW 7 11 29.93 1014 10 16.0934 0.03 0.762
8:10 am 08:10 Partly Cloudy with Heavy Rain 66 19 66 19 100 100 SW 3 6 29.91 1013 7 11.26538 0.05 1.27
8:56 am 08:56 Partly Cloudy with Rain 66 18.9 66 18.9 100 100 S 3 6 29.93 1014 6 9.65604 0.16 4.064
9:56 am 09:56 Partly Cloudy with Rain 68 20 68 20 100 100 SSE 9 15 29.92 1013 10 16.0934 0.04 1.016
10:56 am 10:56 Sunny 70 21.1 69 20.6 97 97 SSW 8 13 29.92 1013 10 16.0934 0.01 0.254
11:56 am 11:56 Sunny 70 21.1 69 20.6 97 97 S 7 11 29.91 1013 10 16.0934 0 0
12:31 pm 12:31 Partly Cloudy with Nearby Thunderstorms 72 22 70 21 94 94 SSW 12 19 29.88 1012 10 16.0934 0 0
12:56 pm 12:56 Partly Cloudy with Light Thunderstorms 69 20.6 68 20 96 96 S 13 20 29.89 1012 7 11.26538 0.09 2.286
1:51 pm 13:51 Partly Cloudy with Nearby Thunderstorms 68 20 68 20 100 100 SSE 12 19 29.85 1011 10 16.0934 0.01 0.254
1:56 pm 13:56 Partly Cloudy with Nearby Thunderstorms 68 20 67 19.4 96 96 SSE 8 13 29.88 1012 10 16.0934 0.01 0.254
2:12 pm 14:12 Partly Cloudy with Heavy Thunderstorms 68 20 68 20 100 100 N 15 24 29.88 1012 8 12.87472 0.04 1.016
2:16 pm 14:16 Partly Cloudy with Thunderstorms 68 20 68 20 100 100 N 13 20 29.88 1012 9 14.48406 0.05 1.27
2:29 pm 14:29 Partly Cloudy with Nearby Thunderstorms 68 20 66 19 94 94 NE 10 17 29.88 1012 10 16.0934 0.06 1.524
2:51 pm 14:51 Partly Cloudy with Heavy Thunderstorms 66 19 66 19 100 100 N 20 31 29.88 1012 2.5 4.02335 0.38 9.652
2:56 pm 14:56 Partly Cloudy with Heavy Thunderstorms 67 19.4 67 19.4 100 100 N 15 24 29.91 1013 2.5 4.02335 0.44 11.176
3:31 pm 15:31 Partly Cloudy with Thunderstorms 64 18 64 18 100 100 E 16 26 29.88 1012 5 8.0467 0.58 14.732
3:56 pm 15:56 Partly Cloudy with Light Thunderstorms 66 18.9 65 18.3 96 96 SE 13 20 29.88 1012 10 16.0934 0.61 15.494
4:56 pm 16:56 Partly Cloudy with Rain 66 18.9 66 18.9 100 100 SE 17 28 29.86 1011 9 14.48406 0.04 1.016
5:08 pm 17:08 Partly Cloudy with Nearby Thunderstorms 64 18 64 18 100 100 ESE 20 31 29.8 1009 9 14.48406 0.03 0.762
5:38 pm 17:38 Partly Cloudy with Light Rain 64 18 64 18 100 100 SSE 15 24 29.8 1009 10 16.0934 0.06 1.524
5:56 pm 17:56 Sunny 65 18.3 64 17.8 97 97 SSE 15 24 29.83 1010 10 16.0934 0.06 1.524
6:56 pm 18:56 Sunny 67 19.4 63 17.2 87 87 SSE 15 24 29.8 1009 10 16.0934 0 0
7:56 pm 19:56 Sunny 67 19.4 63 17.2 87 87 S 6 9 29.82 1010 10 16.0934 0 0
8:14 pm 20:14 Partly Cloudy with Nearby Thunderstorms 66 19 64 18 94 94 S 10 17 29.8 1009 10 16.0934 0 0.0254
8:29 pm 20:29 Partly Cloudy with Light Rain 64 18 64 18 100 100 S 6 9 29.8 1009 10 16.0934 0 0
8:56 pm 20:56 Partly Cloudy with Light Rain 65 18.3 64 17.8 97 97 S 3 6 29.8 1009 10 16.0934 0 0
9:56 pm 21:56 Clear 65 18.3 64 17.8 97 97 SSE 9 15 29.82 1010 10 16.0934 0.01 0.254
10:56 pm 22:56 Mostly Clear with Light Rain 64 17.8 64 17.8 100 100 SSE 10 17 29.82 1010 10 16.0934 0.02 0.508
11:56 pm 23:56 Mostly Clear with Light Rain 64 17.8 64 17.8 100 100 S 7 11 29.82 1010 10 16.0934 0.03 0.762

Powered by AerisWeather